period_start,C,m1,H,J0,J1,J2,J3,J4,J5,JA,JB,JC,JD,JJ,JK,JN,#
2017-11-01 00:01:05,0.04,1.52,0.00,15.00,18.32,21.55,14.53,46.81,1025.90,2062.98,2951.87,2733.04,3126.19,600.34,618.52,9.58,0000 0000 0000 0000 000000
2017-11-01 00:06:06,0.04,1.53,0.00,14.99,18.32,21.53,14.48,46.76,1025.90,2062.96,2950.96,2732.68,3125.73,600.27,618.43,9.63,0000 0000 0000 0000 000000
2017-11-01 00:11:07,0.04,1.53,0.00,14.99,18.32,21.53,14.40,46.71,1025.91,2062.98,2950.06,2732.02,3125.01,599.79,617.97,9.68,0000 0000 0000 0000 000000
2017-11-01 00:16:08,0.04,1.53,0.00,14.99,18.32,21.54,14.47,46.68,1025.99,2062.98,2949.20,2731.71,3124.33,599.99,618.21,9.73,0000 0000 0000 0000 000000
2017-11-01 00:21:09,0.04,1.53,0.00,14.98,18.32,21.56,14.44,46.63,1026.11,2062.98,2948.44,2731.02,3123.82,599.83,618.20,9.78,0000 0000 0000 0000 000000
2017-11-01 00:26:10,0.05,1.54,0.00,14.98,18.32,21.54,14.42,46.77,1026.23,2062.98,2947.48,2730.43,3123.03,599.80,618.24,9.83,0000 0000 0000 0000 000000
2017-11-01 00:31:12,0.04,1.54,0.00,14.98,18.32,21.55,14.50,46.77,1026.29,2062.98,2946.44,2729.93,3122.21,599.93,618.40,9.88,0000 0000 0000 0000 000000
2017-11-01 00:36:13,0.06,1.54,0.00,14.97,18.32,21.51,14.46,46.85,1026.32,2062.99,2945.38,2729.12,3121.49,599.96,618.54,9.94,0000 0000 0000 0000 000000
2017-11-01 00:41:14,0.03,1.54,0.00,14.97,18.32,21.50,14.43,46.76,1026.30,2062.99,2944.55,2728.78,3120.81,600.28,618.75,9.99,0000 0000 0000 0000 000000
2017-11-01 00:46:15,0.04,1.55,0.00,14.98,18.32,21.52,14.54,46.78,1026.33,2062.97,2943.81,2728.04,3120.00,600.78,619.36,10.04,0000 0000 0000 0000 000000
2017-11-01 00:51:16,0.06,1.55,0.00,14.99,18.32,21.53,14.46,46.82,1026.38,2062.97,2942.87,2727.62,3119.19,600.03,618.52,10.09,0000 0000 0000 0000 000000
2017-11-01 00:56:18,0.03,1.55,0.00,14.99,18.32,21.54,14.47,46.85,1026.35,2062.96,2942.01,2726.99,3118.67,599.98,618.36,10.14,0000 0000 0000 0000 000000
2017-11-01 01:01:19,0.05,1.55,0.00,14.98,18.32,21.56,14.42,46.83,1026.36,2062.97,2941.16,2726.43,3118.01,599.68,618.22,10.19,0000 0000 0000 0000 000000
2017-11-01 01:06:20,0.03,1.55,0.00,14.99,18.32,21.55,14.49,46.87,1026.34,2062.97,2940.37,2726.00,3117.31,600.07,618.51,10.24,0000 0000 0000 0000 000000
2017-11-01 01:11:22,0.05,1.56,0.00,14.99,18.32,21.53,14.46,46.68,1026.35,2062.96,2939.51,2725.42,3116.76,600.46,618.94,10.29,0000 0000 0000 0000 000000
2017-11-01 01:16:23,0.03,1.56,0.00,15.00,18.32,21.56,14.50,46.77,1026.37,2062.96,2938.50,2724.93,3116.03,600.17,618.55,10.34,0000 0000 0000 0000 000000
2017-11-01 01:21:24,0.06,1.56,0.00,14.99,18.31,21.55,14.48,46.92,1026.37,2062.96,2937.38,2724.11,3115.32,599.99,618.43,10.39,0000 0000 0000 0000 000000
2017-11-01 01:26:26,0.04,1.56,0.00,14.99,18.31,21.54,14.43,46.79,1026.38,2062.97,2936.23,2723.69,3114.83,600.06,618.53,10.44,0000 0000 0000 0000 000000
2017-11-01 01:31:27,0.04,1.57,0.00,14.99,18.31,21.51,14.47,46.81,1026.38,2062.98,2935.18,2723.00,3114.00,600.11,618.56,10.49,0000 0000 0000 0000 000000
2017-11-01 01:36:28,0.06,1.57,0.00,15.00,18.31,21.52,14.41,46.74,1026.38,2062.99,2934.02,2722.21,3113.15,599.68,618.06,10.54,0000 0000 0000 0000 000000
2017-11-01 01:41:29,0.05,1.57,0.00,15.00,18.32,21.52,14.43,46.75,1026.38,2062.99,2932.96,2721.59,3112.37,599.97,618.56,10.59,0000 0000 0000 0000 000000
2017-11-01 01:46:31,0.04,1.58,0.00,15.02,18.32,21.55,14.40,46.70,1026.38,2062.98,2932.09,2721.01,3111.36,599.67,618.15,10.64,0000 0000 0000 0000 000000
2017-11-01 01:51:32,0.05,1.58,0.00,15.02,18.32,21.54,14.47,46.85,1026.38,2062.98,2931.25,2720.36,3110.78,599.94,618.41,10.69,0000 0000 0000 0000 000000
2017-11-01 01:56:33,0.03,1.58,0.00,15.04,18.33,21.53,14.47,46.80,1026.38,2062.97,2930.29,2719.97,3110.01,599.84,618.22,10.74,0000 0000 0000 0000 000000
2017-11-01 02:01:34,0.06,1.58,0.00,15.04,18.34,21.56,14.50,46.85,1026.38,2062.98,2929.35,2719.13,3109.15,600.17,618.39,10.79,0000 0000 0000 0000 000000
2017-11-01 02:06:35,0.06,1.59,0.00,15.05,18.34,21.54,14.46,46.97,1026.38,2062.98,2928.20,2718.33,3108.27,599.67,618.02,10.84,0000 0000 0000 0000 000000
2017-11-01 02:11:37,0.06,1.59,0.00,15.06,18.34,21.55,14.49,46.87,1026.38,2062.98,2926.95,2717.67,3107.39,600.12,618.48,10.89,0000 0000 0000 0000 000000
2017-11-01 02:16:38,0.06,1.59,0.00,15.07,18.35,21.56,14.44,46.83,1026.38,2062.97,2925.62,2716.83,3106.47,600.24,618.57,10.94,0000 0000 0000 0000 000000
2017-11-01 02:21:39,0.06,1.60,0.00,15.07,18.37,21.55,14.51,46.86,1026.38,2062.97,2924.43,2716.03,3105.38,599.88,618.29,10.99,0000 0000 0000 0000 000000
2017-11-01 02:26:40,0.07,1.60,0.00,15.08,18.37,21.54,14.49,46.90,1026.38,2062.96,2923.15,2715.17,3104.44,599.96,618.36,11.04,0000 0000 0000 0000 000000
2017-11-01 02:31:41,0.05,1.60,0.00,15.08,18.37,21.57,14.52,46.88,1026.38,2062.87,2922.03,2714.35,3103.40,599.88,618.17,11.09,0000 0000 0000 0000 000000
2017-11-01 02:36:42,0.03,1.61,0.00,15.11,18.38,21.59,14.45,46.78,1026.38,2062.68,2920.99,2713.76,3102.57,599.87,618.01,11.14,0000 0000 0000 0000 000000
2017-11-01 02:41:43,0.03,1.61,0.00,15.11,18.39,21.57,14.49,46.77,1026.38,2062.34,2920.06,2713.04,3101.73,600.08,618.28,11.19,0000 0000 0000 0000 000000
2017-11-01 02:46:45,0.04,1.61,0.00,15.12,18.39,21.57,14.42,46.74,1026.38,2062.24,2919.14,2712.56,3101.02,600.21,618.34,11.24,0000 0000 0000 0000 000000
2017-11-01 02:51:46,0.02,1.61,0.00,15.13,18.39,21.59,14.42,46.88,1026.38,2062.12,2918.23,2712.00,3100.24,599.99,618.19,11.29,0000 0000 0000 0000 000000
2017-11-01 02:56:47,0.06,1.61,0.00,15.14,18.39,21.61,14.44,46.92,1026.38,2062.06,2917.26,2711.29,3099.61,600.21,618.33,11.34,0000 0000 0000 0000 000000
2017-11-01 03:01:48,0.04,1.61,0.00,15.15,18.39,21.61,14.42,46.85,1026.38,2062.03,2916.22,2710.76,3098.86,599.55,617.75,11.39,0000 0000 0000 0000 000000
2017-11-01 03:06:50,0.05,1.62,0.00,15.17,18.39,21.59,14.48,46.98,1026.38,2062.04,2915.16,2710.03,3098.03,599.64,617.87,11.44,0000 0000 0000 0000 000000
2017-11-01 03:11:51,0.06,1.62,0.00,15.17,18.40,21.64,14.42,46.90,1026.38,2062.05,2914.15,2709.43,3097.26,599.76,617.86,11.49,0000 0000 0000 0000 000000
2017-11-01 03:16:52,0.04,1.62,0.00,15.18,18.41,21.61,14.42,46.88,1026.39,2062.07,2913.09,2708.89,3096.58,600.16,618.28,11.54,0000 0000 0000 0000 000000
2017-11-01 03:21:54,0.06,1.63,0.00,15.19,18.42,21.60,14.45,46.88,1026.39,2062.05,2911.97,2708.09,3095.74,599.76,617.82,11.59,0000 0000 0000 0000 000000
2017-11-01 03:26:55,0.06,1.63,0.00,15.19,18.42,21.60,14.43,46.74,1026.38,2062.04,2910.76,2707.40,3094.89,599.90,618.02,11.64,0000 0000 0000 0000 000000
2017-11-01 03:31:56,0.05,1.63,0.00,15.19,18.42,21.62,14.45,46.86,1026.39,2062.07,2909.69,2706.84,3094.07,599.80,617.75,11.69,0000 0000 0000 0000 000000
2017-11-01 03:36:57,0.06,1.64,0.00,15.19,18.42,21.68,14.42,46.91,1026.40,2062.09,2908.48,2706.04,3093.32,599.73,617.82,11.74,0000 0000 0000 0000 000000
2017-11-01 03:41:58,0.06,1.64,0.00,15.20,18.42,21.69,14.44,46.88,1026.41,2062.10,2907.39,2705.28,3092.49,599.70,617.87,11.79,0000 0000 0000 0000 000000
2017-11-01 03:47:00,0.05,1.64,0.00,15.20,18.44,21.71,14.38,46.88,1026.43,2062.09,2906.37,2704.66,3091.49,599.72,617.73,11.84,0000 0000 0000 0000 000000
2017-11-01 03:52:01,0.04,1.64,0.00,15.22,18.44,21.69,14.47,46.94,1026.43,2062.03,2905.30,2703.99,3090.56,599.88,617.95,11.89,0000 0000 0000 0000 000000
2017-11-01 03:57:03,0.06,1.65,0.00,15.24,18.45,21.64,14.41,46.83,1026.41,2062.02,2904.14,2703.15,3089.82,599.92,617.89,11.94,0000 0000 0000 0000 000000
2017-11-01 04:02:04,0.06,1.65,0.00,15.24,18.47,21.63,14.49,46.93,1026.40,2062.02,2902.92,2702.41,3088.97,600.03,618.02,11.99,0000 0000 0000 0000 000000
2017-11-01 04:07:06,0.05,1.65,0.00,15.26,18.47,21.67,14.46,46.91,1026.42,2062.01,2901.83,2701.79,3088.06,599.92,617.86,12.04,0000 0000 0000 0000 000000
2017-11-01 04:12:07,0.05,1.66,0.00,15.27,18.49,21.67,14.37,46.84,1026.42,2062.00,2900.69,2701.01,3087.15,599.47,617.36,12.09,0000 0000 0000 0000 000000
2017-11-01 04:17:08,0.06,1.66,0.00,15.27,18.49,21.70,14.39,46.83,1026.43,2062.00,2899.86,2700.31,3086.26,599.89,617.80,12.14,0000 0000 0000 0000 000000
2017-11-01 04:22:09,0.05,1.66,0.00,15.27,18.50,21.71,14.48,46.94,1026.54,2062.00,2898.81,2699.79,3085.54,599.81,617.81,12.19,0000 0000 0000 0000 000000
2017-11-01 04:27:10,0.04,1.66,0.00,15.27,18.52,21.70,14.46,46.88,1026.59,2062.00,2897.79,2699.04,3084.89,600.20,618.11,12.24,0000 0000 0000 0000 000000
2017-11-01 04:32:12,0.05,1.67,0.00,15.27,18.52,21.72,14.45,46.92,1026.69,2062.00,2896.93,2698.52,3084.05,600.24,618.33,12.29,0000 0000 0000 0000 000000
2017-11-01 04:37:13,0.04,1.67,0.00,15.27,18.53,21.72,14.49,46.81,1026.72,2062.00,2896.04,2697.98,3083.25,600.07,618.11,12.34,0000 0000 0000 0000 000000
2017-11-01 04:42:15,0.05,1.67,0.00,15.29,18.54,21.73,14.48,46.92,1026.73,2061.98,2895.08,2697.24,3082.75,600.11,618.10,12.40,0000 0000 0000 0000 000000
2017-11-01 04:47:16,0.03,1.67,0.00,15.30,18.54,21.74,14.46,46.90,1026.83,2061.99,2894.16,2696.99,3082.04,600.08,618.19,12.45,0000 0000 0000 0000 000000
2017-11-01 04:52:17,0.06,1.68,0.00,15.29,18.55,21.73,14.52,46.98,1026.87,2061.99,2893.40,2696.27,3081.59,600.17,618.27,12.50,0000 0000 0000 0000 000000
2017-11-01 04:57:18,0.02,1.68,0.00,15.30,18.57,21.79,14.39,46.92,1026.87,2061.99,2892.69,2695.98,3081.00,599.66,617.87,12.55,0000 0000 0000 0000 000000
2017-11-01 05:02:19,0.05,1.68,0.00,15.31,18.57,21.75,14.48,46.92,1026.87,2061.98,2891.99,2695.34,3080.26,599.87,618.02,12.60,0000 0000 0000 0000 000000
2017-11-01 05:07:20,0.02,1.68,0.00,15.32,18.57,21.78,14.53,46.92,1026.87,2061.98,2891.12,2694.99,3079.81,600.04,617.94,12.65,0000 0000 0000 0000 000000
2017-11-01 05:12:21,0.06,1.69,0.00,15.32,18.57,21.79,14.43,46.89,1026.88,2061.98,2890.20,2694.34,3079.05,599.94,618.07,12.70,0000 0000 0000 0000 000000
2017-11-01 05:17:22,0.03,1.69,0.00,15.32,18.58,21.78,14.46,46.86,1026.89,2061.98,2889.36,2693.96,3078.41,600.05,618.18,12.75,0000 0000 0000 0000 000000
2017-11-01 05:22:24,0.06,1.69,0.00,15.33,18.59,21.79,14.45,46.89,1026.92,2061.97,2888.48,2693.15,3077.74,599.82,617.88,12.80,0000 0000 0000 0000 000000
2017-11-01 05:27:25,0.03,1.69,0.00,15.32,18.59,21.80,14.53,46.98,1027.03,2061.97,2887.61,2692.85,3077.02,600.43,618.53,12.85,0000 0000 0000 0000 000000
2017-11-01 05:32:26,0.06,1.69,0.00,15.31,18.59,21.77,14.43,46.86,1027.18,2061.97,2886.53,2692.07,3076.35,599.91,618.23,12.90,0000 0000 0000 0000 000000
2017-11-01 05:37:28,0.06,1.70,0.00,15.33,18.60,21.81,14.46,46.72,1027.27,2061.97,2885.41,2691.44,3075.68,600.02,618.35,12.95,0000 0000 0000 0000 000000
2017-11-01 05:42:29,0.01,1.70,0.00,15.34,18.61,21.78,14.46,46.84,1027.34,2061.97,2884.84,2691.00,3074.97,599.88,618.13,13.00,0000 0000 0000 0000 000000
2017-11-01 05:47:30,0.05,1.70,0.00,15.33,18.62,21.82,14.45,46.83,1027.34,2061.97,2884.04,2690.65,3074.16,599.95,618.42,13.05,0000 0000 0000 0000 000000
2017-11-01 05:52:31,0.04,1.70,0.00,15.33,18.62,21.81,14.48,46.96,1027.33,2061.95,2883.21,2690.01,3073.73,600.18,618.52,13.10,0000 0000 0000 0000 000000
2017-11-01 05:57:32,0.04,1.71,0.00,15.32,18.62,21.85,14.51,47.05,1027.34,2061.85,2882.25,2689.40,3073.01,600.20,618.56,13.15,0000 0000 0000 0000 000000
2017-11-01 06:02:33,0.03,1.71,0.00,15.33,18.62,21.83,14.47,46.96,1027.36,2061.80,2881.42,2688.99,3072.25,599.97,618.34,13.20,0000 0000 0000 0000 000000
2017-11-01 06:07:35,0.03,1.71,0.00,15.33,18.64,21.83,14.47,46.91,1027.36,2061.71,2880.86,2688.47,3071.79,600.04,618.38,13.25,0000 0000 0000 0000 000000
2017-11-01 06:12:36,0.01,1.71,0.00,15.33,18.64,21.84,14.49,46.92,1027.36,2061.57,2880.06,2688.00,3071.04,599.93,618.23,13.30,0000 0000 0000 0000 000000
2017-11-01 06:17:37,0.04,1.71,0.00,15.33,18.64,21.87,14.46,46.92,1027.36,2061.35,2879.25,2687.55,3070.64,599.99,618.33,13.35,0000 0000 0000 0000 000000
2017-11-01 06:22:39,0.03,1.71,0.00,15.33,18.64,21.87,14.50,46.95,1027.36,2061.40,2878.96,2687.01,3070.02,600.15,618.51,13.40,0000 0000 0000 0000 000000
2017-11-01 06:27:40,0.00,1.71,0.00,15.34,18.64,21.89,14.45,46.65,1027.36,2061.29,2878.17,2686.99,3069.62,599.84,618.15,13.45,0000 0000 0000 0000 000000
2017-11-01 06:32:41,0.03,1.71,0.00,15.34,18.64,21.86,14.53,46.73,1027.36,2061.11,2877.68,2686.51,3069.01,600.01,618.28,13.50,0000 0000 0000 0000 000000
2017-11-01 06:37:42,0.03,1.72,0.00,15.34,18.64,21.82,14.37,46.39,1027.36,2061.09,2876.99,2686.02,3068.61,599.87,618.29,13.55,0000 0000 0000 0000 000000
2017-11-01 06:42:44,0.02,1.72,0.00,15.33,18.64,21.85,14.56,46.48,1027.36,2061.05,2876.25,2685.95,3068.05,600.36,618.80,13.60,0000 0000 0000 0000 000000
2017-11-01 06:47:45,0.04,1.72,0.00,15.34,18.64,21.88,14.47,46.42,1027.36,2061.06,2875.74,2685.26,3067.77,599.99,618.22,13.65,0000 0000 0000 0000 000000
2017-11-01 06:52:46,0.02,1.72,0.00,15.34,18.64,21.83,14.44,46.42,1027.38,2061.06,2875.02,2685.00,3067.08,600.19,618.52,13.70,0000 0000 0000 0000 000000
2017-11-01 06:57:47,0.05,1.72,0.00,15.35,18.64,21.90,14.53,46.44,1027.41,2061.07,2874.29,2684.67,3066.74,600.20,618.59,13.75,0000 0000 0000 0000 000000
2017-11-01 07:02:48,0.03,1.73,0.00,15.34,18.64,21.87,14.49,46.54,1027.46,2061.07,2873.77,2684.04,3066.04,599.99,618.42,13.80,0000 0000 0000 0000 000000
2017-11-01 07:07:50,0.02,1.73,0.00,15.33,18.64,21.86,14.40,46.48,1027.54,2061.05,2872.99,2683.97,3065.64,599.86,618.37,13.85,0000 0000 0000 0000 000000
2017-11-01 07:12:51,0.05,1.73,0.00,15.34,18.64,21.87,14.49,46.56,1027.57,2061.08,2872.13,2683.26,3065.03,600.06,618.46,13.90,0000 0000 0000 0000 000000
2017-11-01 07:17:52,0.03,1.73,0.00,15.34,18.64,21.89,14.44,46.61,1027.57,2061.07,2871.34,2683.00,3064.56,599.90,618.33,13.95,0000 0000 0000 0000 000000
2017-11-01 07:22:53,0.05,1.73,0.00,15.33,18.64,21.86,14.43,46.61,1027.59,2061.13,2870.51,2682.35,3064.02,600.02,618.52,14.00,0000 0000 0000 0000 000000
2017-11-01 07:27:55,0.04,1.74,0.00,15.31,18.64,21.85,14.47,46.58,1027.77,2061.22,2869.79,2682.00,3063.50,599.91,618.56,14.05,0000 0000 0000 0000 000000
2017-11-01 07:32:56,0.05,1.74,0.00,15.31,18.64,21.85,14.50,46.63,1027.80,2061.41,2869.02,2681.60,3063.00,600.27,618.93,14.10,0000 0000 0000 0000 000000
2017-11-01 07:37:57,0.03,1.74,0.00,15.31,18.63,21.84,14.56,46.75,1027.82,2061.26,2868.23,2681.02,3062.26,600.40,619.01,14.15,0000 0000 0000 0000 000000
2017-11-01 07:42:58,0.04,1.74,0.00,15.30,18.63,21.87,14.46,46.74,1027.84,2061.23,2867.42,2680.64,3061.81,599.82,618.78,14.20,0000 0000 0000 0000 000000
2017-11-01 07:48:00,0.03,1.74,0.00,15.30,18.62,21.90,14.45,46.73,1027.84,2061.19,2866.62,2680.02,3061.04,600.05,618.93,14.25,0000 0000 0000 0000 000000
2017-11-01 07:53:01,0.03,1.75,0.00,15.32,18.62,21.87,14.51,46.58,1027.85,2061.24,2865.79,2679.77,3060.52,600.31,618.99,14.30,0000 0000 0000 0000 000000
2017-11-01 07:58:02,0.06,1.75,0.00,15.31,18.62,21.86,14.43,46.67,1027.85,2061.41,2864.93,2679.06,3060.01,599.81,618.54,14.35,0000 0000 0000 0000 000000
2017-11-01 08:03:03,0.07,1.75,0.00,15.29,18.62,21.81,14.53,46.63,1027.85,2061.69,2864.07,2678.82,3059.58,600.08,618.81,14.40,0000 0000 0000 0000 000000
2017-11-01 08:08:04,0.05,1.76,0.00,15.31,18.62,21.86,14.43,46.67,1027.85,2061.84,2863.49,2678.06,3058.85,599.72,618.46,14.45,0000 0000 0000 0000 000000
2017-11-01 08:13:06,0.06,1.76,0.00,15.30,18.62,21.84,14.45,46.75,1027.85,2061.77,2862.21,2677.43,3057.85,599.99,618.70,14.50,0000 0000 0000 0000 000000
2017-11-01 08:18:07,0.14,1.76,0.00,15.29,18.62,21.85,14.44,46.66,1027.85,2061.45,2859.82,2675.80,3055.95,599.92,618.66,14.55,0000 0000 0000 0000 000000
2017-11-01 08:23:09,0.23,1.78,0.00,15.28,18.62,21.80,14.53,46.83,1027.85,2061.37,2855.67,2672.83,3052.38,600.27,618.99,14.60,0000 0000 0000 0000 000000
2017-11-01 08:28:10,0.14,1.78,0.00,15.27,18.62,21.84,14.40,46.79,1027.85,2061.25,2852.48,2670.72,3050.06,599.40,618.11,14.65,0000 0000 0000 0000 000000
2017-11-01 08:33:11,0.06,1.79,0.00,15.27,18.62,21.84,14.49,46.82,1027.85,2061.40,2851.31,2670.00,3049.20,599.78,618.48,14.70,0000 0000 0000 0000 000000
2017-11-01 08:38:12,0.08,1.79,0.00,15.27,18.62,21.84,14.50,46.90,1027.85,2061.44,2850.05,2669.17,3048.28,600.02,618.83,14.75,0000 0000 0000 0000 000000
2017-11-01 08:43:14,0.10,1.80,0.00,15.27,18.63,21.83,14.48,46.81,1027.85,2061.23,2848.10,2667.76,3046.54,599.62,618.37,14.80,0000 0000 0000 0000 000000
2017-11-01 08:48:15,0.23,1.81,0.00,15.29,18.63,21.82,14.48,46.84,1027.85,2061.12,2844.22,2665.12,3043.42,599.74,618.47,14.86,0000 0000 0000 0000 000000
2017-11-01 08:53:17,0.19,1.82,0.00,15.29,18.62,21.83,14.49,46.83,1027.85,2061.15,2840.64,2662.63,3040.66,600.03,618.81,14.91,0000 0000 0000 0000 000000
2017-11-01 08:58:18,0.14,1.82,0.00,15.27,18.62,21.82,14.49,46.73,1027.85,2061.15,2838.18,2660.95,3038.71,599.87,618.67,14.96,0000 0000 0000 0000 000000
2017-11-01 09:03:19,0.08,1.83,0.00,15.28,18.62,21.78,14.41,46.83,1027.86,2061.14,2836.39,2659.83,3037.28,600.10,619.01,15.01,0000 0000 0000 0000 000000
2017-11-01 09:08:21,0.08,1.83,0.00,15.30,18.62,21.83,14.49,46.86,1027.86,2061.33,2835.25,2659.04,3036.37,599.96,618.70,15.06,0000 0000 0000 0000 000000
2017-11-01 09:13:22,0.03,1.84,0.00,15.28,18.62,21.81,14.48,46.87,1027.86,2061.48,2834.53,2658.82,3035.98,600.07,618.90,15.11,0000 0000 0000 0000 000000
2017-11-01 09:18:24,0.04,1.84,0.00,15.27,18.62,21.81,14.44,46.92,1027.87,2061.42,2833.91,2658.08,3035.36,599.61,618.39,15.16,0000 0000 0000 0000 000000
2017-11-01 09:23:25,0.01,1.84,0.00,15.26,18.62,21.81,14.49,46.78,1027.86,2061.25,2833.06,2657.90,3034.86,599.77,618.62,15.21,0000 0000 0000 0000 000000
2017-11-01 09:28:26,0.06,1.84,0.00,15.27,18.62,21.83,14.50,46.92,1027.88,2061.27,2832.14,2657.11,3034.06,599.53,618.23,15.26,0000 0000 0000 0000 000000
2017-11-01 09:33:27,0.08,1.85,0.00,15.27,18.62,21.82,14.45,46.76,1027.94,2061.51,2831.25,2656.86,3033.43,600.01,618.82,15.31,0000 0000 0000 0000 000000
2017-11-01 09:38:29,0.03,1.85,0.00,15.26,18.61,21.82,14.47,46.88,1027.99,2061.39,2830.60,2656.10,3032.97,600.01,618.91,15.36,0000 0000 0000 0000 000000
2017-11-01 09:43:30,0.02,1.85,0.00,15.27,18.60,21.83,14.52,46.88,1028.02,2061.28,2829.95,2655.99,3032.24,600.25,619.08,15.41,0000 0000 0000 0000 000000
2017-11-01 09:48:31,0.05,1.85,0.00,15.25,18.59,21.78,14.52,46.83,1027.99,2061.43,2829.10,2655.51,3031.98,599.81,618.69,15.46,0000 0000 0000 0000 000000
2017-11-01 09:53:32,0.07,1.85,0.00,15.26,18.59,21.80,14.41,46.88,1027.97,2061.63,2828.38,2655.00,3031.25,599.83,618.71,15.51,0000 0000 0000 0000 000000
2017-11-01 09:58:33,0.00,1.86,0.00,15.26,18.59,21.80,14.47,47.04,1028.06,2061.52,2827.86,2654.74,3030.95,600.03,618.98,15.56,0000 0000 0000 0000 000000
2017-11-01 10:03:35,0.03,1.86,0.00,15.26,18.59,21.78,14.49,46.98,1028.02,2061.48,2827.06,2654.06,3030.16,599.97,618.86,15.61,0000 0000 0000 0000 000000
2017-11-01 10:08:37,0.03,1.86,0.00,15.25,18.59,21.81,14.41,46.98,1028.00,2061.39,2826.31,2653.95,3029.89,599.75,618.64,15.66,0000 0000 0000 0000 000000
2017-11-01 10:13:38,0.05,1.86,0.00,15.24,18.58,21.81,14.46,47.03,1027.93,2061.36,2825.54,2653.18,3029.09,599.90,618.90,15.71,0000 0000 0000 0000 000000
2017-11-01 10:18:39,0.04,1.86,0.00,15.24,18.57,21.78,14.48,46.93,1028.00,2061.58,2824.89,2653.00,3028.87,600.21,619.10,15.76,0000 0000 0000 0000 000000
2017-11-01 10:23:40,0.06,1.87,0.00,15.24,18.57,21.78,14.48,46.89,1028.00,2061.76,2824.07,2652.63,3028.09,599.89,618.82,15.81,0000 0000 0000 0000 000000
2017-11-01 10:28:42,0.04,1.87,0.00,15.22,18.57,21.76,14.47,46.98,1027.95,2061.86,2823.31,2652.03,3027.76,600.24,619.18,15.86,0000 0000 0000 0000 000000
2017-11-01 10:33:43,0.03,1.87,0.00,15.23,18.57,21.76,14.46,47.04,1027.91,2061.94,2822.75,2651.89,3027.05,600.02,618.95,15.91,0000 0000 0000 0000 000000
2017-11-01 10:38:44,0.05,1.87,0.00,15.23,18.57,21.76,14.50,47.01,1027.89,2061.95,2822.01,2651.11,3026.50,599.99,618.92,15.96,0000 0000 0000 0000 000000
2017-11-01 10:43:46,0.02,1.88,0.00,15.22,18.57,21.78,14.55,47.08,1027.93,2061.96,2821.13,2650.97,3025.99,600.15,619.14,16.01,0000 0000 0000 0000 000000
2017-11-01 10:48:47,0.06,1.88,0.00,15.22,18.57,21.76,14.41,47.02,1027.90,2061.90,2820.35,2650.19,3025.22,599.66,618.57,16.06,0000 0000 0000 0000 000000
2017-11-01 10:53:48,0.02,1.88,0.00,15.22,18.57,21.74,14.50,47.14,1027.94,2061.89,2819.70,2649.98,3024.96,599.83,618.84,16.11,0000 0000 0000 0000 000000
2017-11-01 10:58:49,0.05,1.88,0.00,15.22,18.57,21.76,14.47,47.06,1028.03,2061.85,2818.76,2649.28,3024.15,600.35,619.43,16.16,0000 0000 0000 0000 000000
2017-11-01 11:03:50,0.03,1.88,0.00,15.24,18.57,21.74,14.45,46.99,1028.07,2061.90,2818.01,2648.98,3023.73,599.93,618.87,16.21,0000 0000 0000 0000 000000
2017-11-01 11:08:51,0.05,1.89,0.00,15.24,18.57,21.76,14.45,47.11,1028.17,2061.94,2817.18,2648.42,3023.02,599.84,619.02,16.26,0000 0000 0000 0000 000000
2017-11-01 11:13:53,0.03,1.89,0.00,15.23,18.57,21.77,14.52,47.11,1028.21,2061.87,2816.57,2648.01,3022.45,600.40,619.25,16.31,0000 0000 0000 0000 000000
2017-11-01 11:18:54,0.01,1.89,0.00,15.23,18.57,21.76,14.46,47.17,1028.22,2061.75,2815.98,2647.75,3021.99,599.90,618.90,16.36,0000 0000 0000 0000 000000
2017-11-01 11:23:55,0.06,1.89,0.00,15.24,18.57,21.73,14.50,47.06,1028.26,2061.83,2815.23,2647.06,3021.34,599.89,618.98,16.41,0000 0000 0000 0000 000000
2017-11-01 11:28:57,0.01,1.89,0.00,15.24,18.57,21.74,14.44,47.00,1028.32,2061.88,2814.86,2647.00,3021.00,600.01,619.08,16.46,0000 0000 0000 0000 000000
2017-11-01 11:33:58,0.04,1.89,0.00,15.23,18.57,21.74,14.50,47.11,1028.32,2061.80,2814.07,2646.57,3020.39,600.02,619.18,16.51,0000 0000 0000 0000 000000
2017-11-01 11:38:59,0.04,1.90,0.00,15.23,18.57,21.73,14.47,47.08,1028.28,2061.77,2813.41,2646.01,3020.00,600.04,619.30,16.56,0000 0000 0000 0000 000000
2017-11-01 11:44:01,0.02,1.90,0.00,15.22,18.56,21.74,14.51,47.13,1028.24,2061.76,2812.81,2645.93,3019.45,600.05,619.17,16.61,0000 0000 0000 0000 000000
2017-11-01 11:49:02,0.05,1.90,0.00,15.23,18.54,21.76,14.44,47.02,1028.22,2061.85,2812.04,2645.27,3019.01,600.02,619.10,16.66,0000 0000 0000 0000 000000
2017-11-01 11:54:03,0.03,1.90,0.00,15.22,18.54,21.76,14.58,47.18,1028.13,2061.83,2811.26,2644.99,3018.41,600.14,619.25,16.71,0000 0000 0000 0000 000000
2017-11-01 11:59:04,0.05,1.90,0.00,15.22,18.54,21.75,14.46,47.01,1028.10,2061.75,2810.59,2644.47,3017.98,600.17,619.29,16.76,0000 0000 0000 0000 000000
2017-11-01 12:04:06,0.03,1.91,0.00,15.22,18.54,21.74,14.51,46.93,1028.00,2061.90,2809.98,2644.03,3017.28,600.31,619.29,16.81,0000 0000 0000 0000 000000
2017-11-01 12:09:07,0.02,1.91,0.00,15.23,18.54,21.77,14.56,47.03,1027.92,2061.94,2809.17,2643.97,3016.99,600.29,619.22,16.86,0000 0000 0000 0000 000000
2017-11-01 12:14:08,0.05,1.91,0.00,15.23,18.54,21.77,14.51,47.02,1027.90,2061.89,2808.60,2643.35,3016.33,600.06,618.94,16.91,0000 0000 0000 0000 000000
2017-11-01 12:19:09,0.02,1.91,0.00,15.23,18.54,21.76,14.50,47.10,1027.89,2061.90,2807.94,2643.00,3015.97,600.05,618.77,16.96,0000 0000 0000 0000 000000
2017-11-01 12:24:11,0.05,1.91,0.00,15.23,18.53,21.75,14.48,47.09,1027.88,2061.92,2807.12,2642.61,3015.25,600.04,618.92,17.01,0000 0000 0000 0000 000000
2017-11-01 12:29:12,0.03,1.92,0.00,15.23,18.52,21.74,14.48,46.97,1027.86,2061.91,2806.36,2642.02,3014.90,600.08,618.85,17.06,0000 0000 0000 0000 000000
2017-11-01 12:34:14,0.04,1.92,0.00,15.24,18.52,21.74,14.48,47.01,1027.86,2061.93,2805.55,2641.82,3014.10,600.00,618.86,17.11,0000 0000 0000 0000 000000
2017-11-01 12:39:14,0.04,1.92,0.00,15.24,18.52,21.73,14.47,46.96,1027.86,2061.93,2804.74,2641.06,3013.77,600.12,618.88,17.16,0000 0000 0000 0000 000000
2017-11-01 12:44:16,0.03,1.92,0.00,15.23,18.52,21.72,14.45,47.05,1027.85,2061.96,2804.01,2640.94,3013.04,600.05,618.90,17.21,0000 0000 0000 0000 000000
2017-11-01 12:49:17,0.05,1.92,0.00,15.22,18.52,21.73,14.53,46.98,1027.85,2061.98,2803.35,2640.32,3012.75,600.03,618.81,17.26,0000 0000 0000 0000 000000
2017-11-01 12:54:18,0.02,1.93,0.00,15.22,18.52,21.75,14.49,46.98,1027.85,2061.99,2802.80,2640.01,3012.03,600.08,618.93,17.31,0000 0000 0000 0000 000000